1353 visiteurs
Prévisions de votre ville :
Vigilance : 8 départements 1 département Mise à jour le 05/12/2019 à 16:10 - Voir la carte

Paris Roissy CDG (95380) le 05/12/2019 à 17:30 Choisir station

1°C 93 % SSO Vit. moyenne 9 kmh/h

Relevés météo quotidiens pour la station de :

UTC
S: Synop
M: Metar
Loc T°C
(°C)
Td
(°C)
HR
(%)
Vis
(km)
Néb
(octa)
Vent
(km/h)
Pression
(mb)
Précipitations
(mm)
Temps
              MOY
10 min
DIR RAF 1h MESURE VAR SUR 3h    
S 00 h 02h 18.6 12.6 68 50 - 6 9 1014.0 -0.4/3h 0.0/6h - 0.0/3h -
S 01 h 03h 16.8 11.5 71 45 - 4 6 1013.9 -0.3/3h 0.0/1h -
S 02 h 04h 17.2 11.2 68 50 - 6 7 1013.5 -0.8/3h 0.0/1h -
S 03 h 05h 17.4 10.7 65 50 - 7 17 1013.6 -0.4/3h 0.0/3h -
S 04 h 06h 18.3 9.9 58 50 - 4 17 1013.8 -0.1/3h 0.0/1h -
S 05 h 07h 19.5 11.0 58 40 - 13 20 1014.1 +0.6/3h 0.0/1h -
S 06 h 08h 21.2 11.5 54 30 - 7 13 1014.4 +0.8/3h 0.0/12h - 0.0/3h - 0.0/24h -
S 07 h 09h 23.2 12.2 50 35 - 17 30 1014.4 +0.6/3h 0.0/1h -
S 08 h 10h 25.7 12.5 44 35 - 17 24 1014.4 +0.4/3h 0.0/1h -
S 09 h 11h 29.0 12.8 37 40 - 17 26 1013.9 -0.4/3h 0.0/3h -
S 10 h 12h 31.2 11.6 30 19 - 9 15 1013.6 -0.7/3h 0.0/1h -
S 11 h 13h 31.9 11.7 29 28 - 15 33 1013.2 -1.2/3h 0.0/1h -
S 12 h 14h 32.3 11.5 28 27 - 19 31 1012.7 -1.2/3h 0.0/6h - 0.0/3h -
S 13 h 15h 32.6 11.7 28 23 - 20 43 1012.2 -1.4/3h 0.0/1h -
S 14 h 16h 34.2 11.4 25 19 - 24 41 1011.5 -1.7/3h 0.0/1h -
S 15 h 17h 33.9 7.0 19 17 - 13 22 1011.2 -1.5/3h 0.0/3h -
S 16 h 18h 33.2 8.6 22 16 - 30 46 1011.0 -1.2/3h 0.0/1h -
S 17 h 19h 31.2 10.0 27 16 - 28 44 1011.1 -0.4/3h 0.0/1h -
S 18 h 20h 30.8 11.7 31 40 - 26 41 1011.2 0.0/3h 0.0/12h - 0.0/3h -
S 19 h 21h 30.1 11.6 32 40 - 19 35 1011.5 +0.5/3h 0.0/1h -
S 20 h 22h 28.4 11.5 35 50 - 17 39 1012.2 +1.1/3h 0.0/1h -
S 21 h 23h 27.5 11.5 37 50 - 11 19 1012.6 +1.4/3h 0.0/3h -
S 22 h 00h 25.9 11.6 41 50 - 19 33 1012.5 +1.0/3h 0.0/1h -
S 23 h 01h 24.8 12.4 46 45 - 11 33 1012.6 +0.4/3h 0.0/1h -
evolution des temperatures
cumul des precipitations
vent moyen et rafales
pression atmospherique

Un tiret (-) signifie que les données ne sont pas disponibles.

Passez la souris sur les pictos temps pour avoir plus de précisions. Passez les flèches sur l'icône de la direction du vent pour voir la direction précise en degrés.

Les données de l'heure en cours sont disponibles à partir de H+15 minutes.


S signifie station Synop, plus complète qu'une station Metar (M). Il y a +1h de différence entre l'heure UTC et l'heure légale en hiver et +2h en été.

Td est la mesure du point de rosée.

HR est l'humidité relative/p>

Vis est la visibilité

Néb est la nébulosité du ciel (couverture nuageuse) exprimée en octas (de 0/8 à 8/8).

Vent moy 10 min donne le vent moyen sur les 10 minutes qui précèdent le relevé.

Vent raf 1h donne la rafale maximale mesurée dans l'heure qui précède le relevé.


Les données les plus anciennes remontent à avril 2014.

Les données présentées sur cette page proviennent des stations météo officielles. Les relevés sont effectués aux normes en vigueur (anémomètre à 10m de haut, thermomètre sous abri normalisé à 2m du sol...)

Météo 60 décline toute responsabilité en cas d'absence de données, d'erreurs, de mauvaise utilisation ou interprétation et n'est pas habilité à fournir des certificats intempéries.